Printer-friendly version

IAU Minor Planet Center

Minor Planet Center

MPEC 2006-F54 : 2006 FC35

The following Minor Planet Electronic Circular may be linked-to from your own Web pages, but must not otherwise be redistributed electronically.


Read MPEC 2006-F53 Read MPEC 2006-F55


M.P.E.C. 2006-F54                                Issued 2006 Mar. 30, 15:41 UT

     The Minor Planet Electronic Circulars contain information on unusual
         minor planets and routine data on comets.  They are published
   on behalf of Commission 20 of the International Astronomical Union by the
          Minor Planet Center, Smithsonian Astrophysical Observatory,
                          Cambridge, MA 02138, U.S.A.

                  Supported in part by the Brinson Foundation
                  Supported in part by the TABASGO Foundation
             Prepared using the Tamkin Foundation Computer Network

                              MPC@CFA.HARVARD.EDU
          URL http://cfa-www.harvard.edu/iau/mpc.html  ISSN 1523-6714

                                   2006 FC35

Observations:
     K06F35C* C2006 03 29.23710 12 15 23.25 +29 31 58.5          19.1 V EF054703
     K06F35C  C2006 03 29.24571 12 15 21.31 +29 30 57.1          19.1 V EF054703
     K06F35C  C2006 03 29.25436 12 15 19.22 +29 29 54.3          19.0 V EF054703
     K06F35C  C2006 03 29.26300 12 15 17.35 +29 28 52.2          18.9 V EF054703
     K06F35C  C2006 03 29.36200 12 14 54.42 +29 16 54.3          18.7 V EF054703
     K06F35C  C2006 03 29.36334 12 14 54.06 +29 16 44.7          19.1 V EF054703
     K06F35C  C2006 03 29.36466 12 14 53.77 +29 16 35.3          18.8 V EF054703
     K06F35C  C2006 03 29.83928 12 13 16.95 +28 19 10.7          18.5 V EF054565
     K06F35C  C2006 03 29.84143 12 13 16.45 +28 18 54.5          18.6 V EF054565
     K06F35C  C2006 03 29.84358 12 13 15.98 +28 18 39.1          18.4 V EF054565
     K06F35C  C2006 03 29.84573 12 13 15.42 +28 18 23.9          18.6 V EF054565
     K06F35C  C2006 03 29.84716 12 13 15.03 +28 18 12.3          18.6 V EF054565
     K06F35C  C2006 03 29.85905 12 13 12.33 +28 16 47.2          18.5 V EF054595
     K06F35C  C2006 03 29.87294 12 13 09.34 +28 15 07.4                 EF054595
     K06F35C  C2006 03 29.88683 12 13 06.27 +28 13 27.5                 EF054595
     K06F35C  C2006 03 29.90072 12 13 03.25 +28 11 47.1                 EF054595
     K06F35C  C2006 03 30.16437 12 12 10.40 +27 40 08.8          19.6 R EF054854
     K06F35C  C2006 03 30.16889 12 12 09.46 +27 39 35.3          19.2 R EF054854
     K06F35C  C2006 03 30.17345 12 12 08.45 +27 39 03.1          19.4 R EF054854
     K06F35C  C2006 03 30.25417 12 11 49.85 +27 29 25.8          18.9 R EF054850
     K06F35C  C2006 03 30.25658 12 11 49.13 +27 29 05.7          18.8 R EF054850
     K06F35C  C2006 03 30.25899 12 11 48.64 +27 28 48.7          18.2 R EF054850
     K06F35C  C2006 03 30.26140 12 11 48.13 +27 28 30.3          18.7 R EF054850
     K06F35C  C2006 03 30.26380 12 11 47.60 +27 28 14.4                 EF054850
     K06F35C  C2006 03 30.27558 12 11 45.04 +27 26 49.3                 EF054850
     K06F35C  C2006 03 30.31934 12 11 36.08 +27 21 31.6          19.1 R EF054H06
     K06F35C  C2006 03 30.33401 12 11 33.57 +27 19 47.6          19.8 R EF054H06
     K06F35C  C2006 03 30.49101 12 11 02.83 +27 01 42.6          19.0 R EF054474
     K06F35C  C2006 03 30.49228 12 11 02.59 +27 01 33.5          19.0 R EF054474
     K06F35C  C2006 03 30.49329 12 11 02.38 +27 01 26.7          18.8 R EF054474
     K06F35C  C2006 03 30.50001 12 11 00.92 +27 00 38.1          18.8 R EF054474

Observer details:
474 Mount John Observatory, Lake Tekapo.  Observer A. C. Gilmore.  1.0-m f/7.7
    reflector + CCD.
565 Bassano Bresciano.  Observers U. Quadri, L. Strabla, R. Girelli,
    C. Cremaschini.  0.32-m f/3.1 Schmidt + CCD.
595 Farra d'Isonzo.  Observers G. Lombardi, E. Pettarin.  Measurer G. Lombardi.
    0.40-m f/4.5 reflector + CCD.
703 Catalina Sky Survey.  Observer A. R. Gibbs.  Measurers E. C. Beshore,
    E. J. Christensen, G. J. Garradd, A. R. Gibbs, A. D. Grauer, R. E. Hill,
    R. A. Kowalski, S. M. Larson, R. H. McNaught.  0.68-m Schmidt + CCD.
850 Cordell-Lorenz Observatory, Sewanee.  Observers D. T. Durig,
    C. E. Plunkett.  0.30-m f/5.8 Schmidt-Cassegrain + CCD.
854 Sabino Canyon Observatory, Tucson.  Observer J. E. McGaha.  0.36-m f/10.0
    Schmidt-Cassegrain + CCD.
H06 New Mexico Skies Observatory.  Observer R. Hutsebaut.  0.30-m reflector
    + CCD.

Orbital elements:
2006 FC35                                                Earth MOID = 0.1925 AU
Epoch 2006 Mar. 26.0 TT = JDT 2453820.5                 MPC
M  18.76456              (2000.0)            P               Q
n   0.44025989     Peri.  122.31593     -0.75112588     -0.65092057
a   1.7113151      Node    17.89075     +0.41779774     -0.59779292
e   0.3697092      Incl.   20.99286     +0.51113106     -0.46791670
P   2.24           H   21.0           G   0.15
From 28 observations 2006 Mar. 29-30.

Ephemeris:
2006 FC35                a,e,i = 1.71, 0.37, 21                  q = 1.0786
Date    TT    R. A. (2000) Decl.     Delta      r     Elong.  Phase     V
2006 03 26    12 28.00   +36 00.3    0.196    1.158   141.9    32.1    19.1
2006 03 31    12 09.37   +26 00.1    0.201    1.176   149.3    25.7    19.0
2006 04 05    11 55.43   +16 22.0    0.215    1.196   153.3    22.1    19.1
2006 04 10    11 45.44   +07 50.2    0.236    1.217   153.1    21.9    19.3
2006 04 15    11 38.70   +00 42.4    0.264    1.239   150.0    23.9    19.7
2006 04 20    11 34.61   -05 04.1    0.297    1.261   145.8    26.6    20.1
2006 04 25    11 32.70   -09 41.4    0.335    1.285   141.5    29.1    20.4
2006 04 30    11 32.62   -13 23.7    0.376    1.309   137.5    31.3    20.8
2006 05 05    11 34.08   -16 23.6    0.420    1.334   133.7    33.1    21.1
2006 05 10    11 36.84   -18 51.0    0.467    1.359   130.3    34.5    21.4
2006 05 15    11 40.69   -20 53.8    0.516    1.385   127.2    35.6    21.7

Brian G. Marsden             (C) Copyright 2006 MPC           M.P.E.C. 2006-F54

Read MPEC 2006-F53 Read MPEC 2006-F55


Our Web policy. Index to the CBAT/MPC/ICQ pages.


Valid HTML 4.01!